Torna al catalogo

CYGFM01

AttivoMeteoVLEO
NORAD 41887·PAYLOAD·🇺🇸 United States

Lanciato Dec 15, 2016 da Cape Canaveral Space Force Station

Loading…

Prossimi Passaggi (prossime 24 ore)

TLE

AggiornatoSource: Space-Track

Epoca: Sep 14, 2026, 14:31 UTC

1 41887U 16078D   26257.60523751  .00025819  00000-0  29213-3 0  9996
2 41887  34.9401  27.0222 0005236 283.7403  76.2739 15.61397311542674

Traccia CYGFM01 in tempo reale con AllMySat

Download on the App Store